This is the latest recevied weather packets stored in our database for station/object 2E1HJE-10. If no packets are shown the sender has not sent any weather packets the latest 10 day(s).
| Time | Temp. | Humidity | Pressure | Rain* | Wind** | Luminosity | Snow |
|---|---|---|---|---|---|---|---|
| 1788603508 | 18.89° C | 54% | 1024.1 hPa | 0 mm | - | - | - |
| 1788602907 | 18.33° C | 54% | 1024.1 hPa | 0 mm | - | - | - |
| 1788602307 | 17.78° C | 61% | 1023.5 hPa | 0 mm | - | - | - |
| 1788601708 | 17.78° C | 61% | 1023.5 hPa | 0 mm | - | - | - |
| 1788601108 | 17.78° C | 61% | 1023.5 hPa | 0 mm | - | - | - |
| 1788600507 | 17.22° C | 61% | 1023.5 hPa | 0 mm | - | - | - |
| 1788599907 | 17.22° C | 60% | 1023.6 hPa | 0 mm | - | - | - |
| 1788599307 | 17.22° C | 60% | 1023.6 hPa | 0 mm | - | - | - |
| 1788596907 | 16.11° C | 68% | 1023 hPa | 0 mm | - | - | - |
| 1788596320 | 16.11° C | 69% | 1023.2 hPa | 0 mm | - | - | - |
| 1788595708 | 16.11° C | 69% | 1023.2 hPa | 0 mm | - | - | - |
| 1788595107 | 15.56° C | 76% | 1022.5 hPa | 0 mm | - | - | - |
| 1788594507 | 15.56° C | 76% | 1022.5 hPa | 0 mm | - | - | - |
| 1788593907 | 15° C | 76% | 1022.7 hPa | 0 mm | - | - | - |
| 1788593307 | 14.44° C | 76% | 1022.7 hPa | 0 mm | - | - | - |
| 1788592708 | 14.44° C | 76% | 1022.7 hPa | 0 mm | - | - | - |
| 1788591507 | 13.89° C | 83% | 1022.1 hPa | 0 mm | - | - | - |
| 1788590307 | 13.33° C | 83% | 1022.1 hPa | 0 mm | - | - | - |
| 1788589107 | 13.33° C | 83% | 1022 hPa | 0 mm | - | - | - |
| 1788588507 | 13.33° C | 83% | 1022 hPa | 0 mm | - | - | - |
| 1788587907 | 12.78° C | 84% | 1021.1 hPa | 0 mm | - | - | - |
| 1788587307 | 12.78° C | 84% | 1021.1 hPa | 0 mm | - | - | - |
| 1788586707 | 12.78° C | 84% | 1021.1 hPa | 0 mm | - | - | - |
| 1788586108 | 12.78° C | 84% | 1021.1 hPa | 0 mm | - | - | - |
| 1788585508 | 12.78° C | 84% | 1021.3 hPa | 0 mm | - | - | - |
* Rain latest hour (hover to see other rain measurements)
** Current wind speed in m/s (hover to see current wind gust speed)